Weather in Cesena

Italy     44°08′29″N   12°15′00″E
temp.,
°C
wind,
m/s
gust,
m/s
humid.,
%
clouds,
%
prec.,
mm/h
press.,
hPa
HPBL,
m
17 april, sat
sat1723:00+6nnw11616 0.0 101852
02:00+5w227056 0.0 101870
05:00+4wnw3371100 0.0 101777
08:00+6wnw2465100 0.0 1017283
11:00+11ne6752100 0.0 10161419
14:00+12ene6851100 0.0 10151517
17:00+12ne3448100 0.0 10141203
20:00+9ene346468 0.0 1014287
18 april, sun
sun1823:00+9ene476675 0.0 1015333
02:00+8ne367181 0.0 1015339
05:00+7n2476100 0.1 1014213
08:00+8n2573100 0.1 1014420
11:00+11ene5664100 0.2 10151436
14:00+11ene4563100 0.6 10151185
17:00+11e4566100 0.0 1015837
20:00+9e2372100 0.0 1015218
19 april, mon
mon1923:00+9n1376100 0.0 1016162
02:00+8ne1379100 0.0 1016127
05:00+7wnw228198 0.1 1015122
08:00+9wnw2279100 0.2 1016216
11:00+11ne1271100 0.5 1016758
14:00+13e3257100 0.8 10151178
17:00+14ese4356100 0.0 1013947
20:00+10ese3471100 0.0 1013105
20 april, tue
tue2023:00+8sse238511 0.1 101474
02:00+7sw22845 0.1 101427
05:00+7sw22845 0.0 101430
08:00+9sw22755 0.0 1014107
11:00+15e11553 0.1 1014987
14:00+16e434949 0.8 10131375
17:00+15ese5457100 0.3 1013708
20:00+12ese3575100 0.3 1013135
21 april, wed
wed2123:00+11sw2278100 0.1 101436
02:00+10sw2278100 0.1 101440
05:00+8w2383100 0.0 101450
08:00+10wsw227365 0.0 1015124
11:00+15nne0155100 0.0 1015688
14:00+17e3250100 0.0 10141221
17:00+16ese4456100 0.0 1013767
20:00+12ese2373100 0.1 101385